Location: Dumpton Point
(51.3500°N, 1.4433°E)
Time: 23:57:00
(UTC+00:00)

Vanguard 1 - Pass Details

Date: 28 September 2022
Orbit: 650 x 3831 km, 34.2° (Epoch: 03 December)

Event Time Altitude Azimuth Distance (km) Brightness Sun altitude
Rises 16:43:54 0° 243° (WSW) 5,692 15.9 7.7°
Reaches altitude 10° 16:49:14 10° 231° (SW) 4,067 14.6 6.9°
Maximum altitude 16:56:08 22° 186° (S) 2,469 12.4 5.8°
Drops below altitude 10° 17:00:57 10° 138° (SE) 2,705 12.0 5.1°
Sets 17:03:39 0° 122° (ESE) 3,383 12.4 4.7°
